ANZ6235 NZWN-NZCH

Flight info

Callsign ANZ6235
Flight time 0h 34m
Altitude 28000
Route SABDA Y622 MESIX
Aircraft A320/M-SDE3FGHIRWY/LB1

Departure

Time 2026-05-05 00:35
Airport Wellington International Airport (NZWN)

Arrival

Time 2026-05-05 01:10
Airport Christchurch International Airport (NZCH)
Time Latitude Longitude Altitude Speed Heading
2026-05-05 00:23 -41.33015 174.80940 27 ft 0 kts 118°
2026-05-05 00:27 -41.33014 174.80938 27 ft 1 kts 118°
2026-05-05 00:27 -41.33007 174.80920 27 ft 3 kts 118°
2026-05-05 00:28 -41.32998 174.80897 27 ft 3 kts 122°
2026-05-05 00:28 -41.32985 174.80880 27 ft 3 kts 166°
2026-05-05 00:28 -41.32966 174.80877 27 ft 2 kts 180°
2026-05-05 00:28 -41.32948 174.80877 27 ft 2 kts 180°
2026-05-05 00:29 -41.32943 174.80877 27 ft 1 kts 180°
2026-05-05 00:31 -41.32954 174.80877 27 ft 5 kts 181°
2026-05-05 00:31 -41.33010 174.80874 27 ft 12 kts 182°
2026-05-05 00:31 -41.33108 174.80870 27 ft 12 kts 182°
2026-05-05 00:32 -41.33152 174.80843 27 ft 10 kts 239°
2026-05-05 00:32 -41.33204 174.80782 27 ft 13 kts 182°
2026-05-05 00:32 -41.33314 174.80783 27 ft 18 kts 181°
2026-05-05 00:32 -41.33453 174.80771 27 ft 22 kts 184°
2026-05-05 00:33 -41.33567 174.80713 27 ft 16 kts 238°
2026-05-05 00:33 -41.33518 174.80630 27 ft 8 kts
2026-05-05 00:33 -41.33514 174.80631 27 ft 0 kts
2026-05-05 00:34 -41.33513 174.80631 27 ft 0 kts
2026-05-05 00:35 -41.33206 174.80651 28 ft 101 kts
2026-05-05 00:35 -41.32315 174.80709 697 ft 142 kts
2026-05-05 00:35 -41.31276 174.80805 1925 ft 157 kts
2026-05-05 00:36 -41.30108 174.80893 3052 ft 180 kts 359°
2026-05-05 00:36 -41.28787 174.80954 4269 ft 201 kts 354°
2026-05-05 00:36 -41.27403 174.80331 5389 ft 227 kts 321°
2026-05-05 00:36 -41.26484 174.78496 6487 ft 258 kts 286°
2026-05-05 00:37 -41.26558 174.76034 7751 ft 281 kts 252°
2026-05-05 00:37 -41.27703 174.73892 9175 ft 295 kts 219°
2026-05-05 00:37 -41.29533 174.72562 10603 ft 309 kts 203°
2026-05-05 00:37 -41.31625 174.71456 11499 ft 337 kts 202°
2026-05-05 00:38 -41.33878 174.70316 12630 ft 353 kts 202°
2026-05-05 00:38 -41.36214 174.69160 14012 ft 362 kts 202°
2026-05-05 00:38 -41.38601 174.67985 15306 ft 369 kts 201°
2026-05-05 00:38 -41.41036 174.66782 16593 ft 376 kts 201°
2026-05-05 00:39 -41.43517 174.65552 17876 ft 383 kts 201°
2026-05-05 00:39 -41.46009 174.64310 19068 ft 391 kts 200°
2026-05-05 00:39 -41.48615 174.63011 20209 ft 397 kts 200°
2026-05-05 00:39 -41.51181 174.61732 21304 ft 403 kts 200°
2026-05-05 00:40 -41.53832 174.60409 22412 ft 409 kts 200°
2026-05-05 00:40 -41.56520 174.59062 23508 ft 416 kts 200°
2026-05-05 00:40 -41.59250 174.57690 24476 ft 422 kts 200°
2026-05-05 00:40 -41.62007 174.56304 25325 ft 427 kts 200°
2026-05-05 00:41 -41.64797 174.54898 26110 ft 431 kts 200°
2026-05-05 00:41 -41.67623 174.53474 26840 ft 435 kts 200°
2026-05-05 00:41 -41.70464 174.52043 27511 ft 439 kts 200°
2026-05-05 00:41 -41.73337 174.50597 28137 ft 444 kts 200°
2026-05-05 00:42 -41.76267 174.49124 28389 ft 456 kts 200°
2026-05-05 00:42 -41.79233 174.47450 28439 ft 470 kts 206°
2026-05-05 00:42 -41.82069 174.45134 28441 ft 485 kts 214°
2026-05-05 00:42 -41.84897 174.42560 28436 ft 498 kts 214°
2026-05-05 00:43 -41.87791 174.39919 28631 ft 505 kts 214°
2026-05-05 00:43 -41.90652 174.37310 28231 ft 488 kts 213°
2026-05-05 00:43 -41.93441 174.34763 28378 ft 489 kts 214°
2026-05-05 00:43 -41.96290 174.32156 28437 ft 502 kts 214°
2026-05-05 00:44 -41.99183 174.29510 28612 ft 497 kts 213°
2026-05-05 00:44 -42.01983 174.26948 28388 ft 478 kts 214°
2026-05-05 00:44 -42.04737 174.24424 28422 ft 478 kts 214°
2026-05-05 00:45 -42.10199 174.19413 28420 ft 478 kts 213°
2026-05-05 00:45 -42.15695 174.14368 28418 ft 478 kts 214°
2026-05-05 00:46 -42.21172 174.09318 28414 ft 476 kts 214°
2026-05-05 00:46 -42.26644 174.04277 28414 ft 475 kts 214°
2026-05-05 00:47 -42.32093 173.99234 28411 ft 475 kts 214°
2026-05-05 00:47 -42.37543 173.94182 28413 ft 474 kts 214°
2026-05-05 00:48 -42.42988 173.89131 28411 ft 474 kts 214°
2026-05-05 00:48 -42.48418 173.84067 28413 ft 474 kts 214°
2026-05-05 00:49 -42.53842 173.79002 28414 ft 473 kts 214°
2026-05-05 00:49 -42.59259 173.73931 28412 ft 473 kts 214°
2026-05-05 00:50 -42.64675 173.68870 28411 ft 473 kts 214°
2026-05-05 00:50 -42.70086 173.63795 28405 ft 472 kts 214°
2026-05-05 00:51 -42.75489 173.58706 28408 ft 472 kts 214°
2026-05-05 00:51 -42.80833 173.53651 28041 ft 462 kts 214°
2026-05-05 00:51 -42.83429 173.51194 27761 ft 444 kts 214°
2026-05-05 00:52 -42.85915 173.48844 27657 ft 425 kts 214°
2026-05-05 00:52 -42.88298 173.46590 27459 ft 410 kts 214°
2026-05-05 00:52 -42.90637 173.44375 26788 ft 409 kts 214°
2026-05-05 00:52 -42.92971 173.42162 26101 ft 409 kts 214°
2026-05-05 00:53 -42.95311 173.39943 25409 ft 410 kts 214°
2026-05-05 00:53 -42.97655 173.37723 24729 ft 410 kts 214°
2026-05-05 00:53 -42.99994 173.35500 24065 ft 410 kts 214°
2026-05-05 00:53 -43.02336 173.33271 23344 ft 409 kts 215°
2026-05-05 00:54 -43.04664 173.31052 22718 ft 406 kts 215°
2026-05-05 00:54 -43.06966 173.28852 22110 ft 402 kts 215°
2026-05-05 00:54 -43.09244 173.26654 21525 ft 398 kts 217°
2026-05-05 00:54 -43.11297 173.24156 20937 ft 393 kts 228°
2026-05-05 00:55 -43.12999 173.21239 20519 ft 393 kts 235°
2026-05-05 00:55 -43.14624 173.18215 20390 ft 396 kts 234°
2026-05-05 00:55 -43.16268 173.15180 19680 ft 399 kts 234°
2026-05-05 00:55 -43.17929 173.12119 18352 ft 399 kts 234°
2026-05-05 00:56 -43.19020 173.10113 17619 ft 392 kts 235°
2026-05-05 00:56 -43.20592 173.07226 17206 ft 363 kts 235°
2026-05-05 00:56 -43.22080 173.04484 16605 ft 357 kts 235°
2026-05-05 00:56 -43.23557 173.01748 15971 ft 356 kts 235°
2026-05-05 00:57 -43.24577 172.99852 15536 ft 355 kts 235°
2026-05-05 00:57 -43.25747 172.97783 15036 ft 355 kts 231°
2026-05-05 00:57 -43.27499 172.95389 14391 ft 356 kts 225°
2026-05-05 00:57 -43.29301 172.93061 13690 ft 355 kts 225°
2026-05-05 00:58 -43.31095 172.90738 13033 ft 352 kts 225°
2026-05-05 00:58 -43.32844 172.88472 12175 ft 356 kts 225°
2026-05-05 00:58 -43.34685 172.86077 11316 ft 359 kts 225°
2026-05-05 00:58 -43.36492 172.83726 10657 ft 354 kts 225°
2026-05-05 00:59 -43.38220 172.81487 10307 ft 327 kts 225°
2026-05-05 00:59 -43.39805 172.79435 9962 ft 305 kts 225°
2026-05-05 00:59 -43.41317 172.77470 9772 ft 297 kts 226°
2026-05-05 00:59 -43.42809 172.75525 9647 ft 294 kts 226°
2026-05-05 01:00 -43.44294 172.73584 9519 ft 293 kts 226°
2026-05-05 01:00 -43.45773 172.71650 9390 ft 293 kts 226°
2026-05-05 01:00 -43.47256 172.69710 8909 ft 297 kts 226°
2026-05-05 01:00 -43.48741 172.67771 8409 ft 290 kts 225°
2026-05-05 01:01 -43.50191 172.65881 7818 ft 285 kts 225°
2026-05-05 01:01 -43.51629 172.64006 7280 ft 283 kts 225°
2026-05-05 01:01 -43.53045 172.62158 6745 ft 280 kts 225°
2026-05-05 01:01 -43.54460 172.60305 6205 ft 278 kts 225°
2026-05-05 01:02 -43.55851 172.58477 5672 ft 273 kts 225°
2026-05-05 01:02 -43.57199 172.56701 5168 ft 265 kts 225°
2026-05-05 01:02 -43.58520 172.54961 4660 ft 258 kts 225°
2026-05-05 01:02 -43.59767 172.53321 4548 ft 235 kts 225°
2026-05-05 01:03 -43.60892 172.51844 4491 ft 212 kts 225°
2026-05-05 01:03 -43.61904 172.50523 4417 ft 188 kts 225°
2026-05-05 01:03 -43.62762 172.49312 4341 ft 166 kts 238°
2026-05-05 01:03 -43.63204 172.47950 4276 ft 148 kts 261°
2026-05-05 01:04 -43.63250 172.46612 4192 ft 136 kts 281°
2026-05-05 01:04 -43.62375 172.44269 3472 ft 143 kts 313°
2026-05-05 01:04 -43.61733 172.43241 3200 ft 139 kts 312°
2026-05-05 01:05 -43.61118 172.42250 3039 ft 133 kts 312°
2026-05-05 01:05 -43.60450 172.41402 2902 ft 129 kts 335°
2026-05-05 01:05 -43.59583 172.41204 2735 ft 129 kts
2026-05-05 01:05 -43.58786 172.41748 2539 ft 130 kts 40°
2026-05-05 01:06 -43.58109 172.42543 2380 ft 125 kts 38°
2026-05-05 01:06 -43.57451 172.43303 2188 ft 122 kts 39°
2026-05-05 01:06 -43.56803 172.44051 2015 ft 121 kts 39°
2026-05-05 01:06 -43.56163 172.44793 1832 ft 124 kts 39°
2026-05-05 01:07 -43.55512 172.45547 1692 ft 121 kts 39°
2026-05-05 01:07 -43.54875 172.46285 1518 ft 120 kts 40°
2026-05-05 01:07 -43.54238 172.47024 1352 ft 119 kts 40°
2026-05-05 01:07 -43.53604 172.47760 1184 ft 119 kts 40°
2026-05-05 01:08 -43.52971 172.48493 1015 ft 119 kts 40°
2026-05-05 01:08 -43.52339 172.49225 846 ft 119 kts 40°
2026-05-05 01:08 -43.51706 172.49958 682 ft 119 kts 40°
2026-05-05 01:08 -43.51073 172.50694 494 ft 119 kts 40°
2026-05-05 01:09 -43.50439 172.51430 343 ft 119 kts 39°
2026-05-05 01:09 -43.49802 172.52167 204 ft 120 kts 39°
2026-05-05 01:09 -43.49195 172.52868 119 ft 100 kts 42°
2026-05-05 01:09 -43.48752 172.53381 112 ft 66 kts 40°
2026-05-05 01:10 -43.48538 172.53628 110 ft 24 kts 48°
2026-05-05 01:10 -43.48488 172.53784 107 ft 12 kts 70°
2026-05-05 01:10 -43.48458 172.53917 106 ft 14 kts 92°
2026-05-05 01:10 -43.48464 172.53945 106 ft 0 kts 107°
2026-05-05 01:11 -43.48471 172.53964 107 ft 7 kts 121°
2026-05-05 01:11 -43.48536 172.53962 107 ft 13 kts 221°
2026-05-05 01:11 -43.48620 172.53861 109 ft 19 kts 220°
2026-05-05 01:11 -43.48732 172.53731 109 ft 13 kts 220°
2026-05-05 01:12 -43.48759 172.53710 109 ft 6 kts 187°
2026-05-05 01:12 -43.48803 172.53758 108 ft 11 kts 126°
2026-05-05 01:12 -43.48830 172.53803 108 ft 4 kts 131°
2026-05-05 01:12 -43.48839 172.53816 108 ft 2 kts 130°
2026-05-05 01:13 -43.48840 172.53818 108 ft 0 kts 130°